Location: Newark
(45.0667°N, 7.8333°E)
Time: 14:11:50
(UTC+00:00)

CAS-4B - Visible Passes

Search period start: 22 October 2019 00:00
Search period end: 01 November 2019 00:00
Orbit: 528 x 546 km, 43.0° (Epoch: 22 October)

Date Brightness Start Highest point End Pass type
(mag) Time Alt. Az. Time Alt. Az. Time Alt. Az.
22 Oct ? 16:59:03 10° SSE 17:00:33 12° SE 17:02:02 10° ESE visible
22 Oct ? 18:36:10 10° SW 18:39:05 33° S 18:39:05 33° S visible
23 Oct ? 18:25:54 10° SW 18:29:34 43° S 18:29:34 43° S visible
24 Oct ? 18:15:40 10° WSW 18:19:37 48° SSE 18:19:59 47° SE visible
25 Oct ? 18:05:28 10° WSW 18:09:27 54° SSE 18:10:21 43° ESE visible
25 Oct ? 19:45:23 10° W 19:45:42 12° W 19:45:42 12° W visible
26 Oct ? 17:55:17 10° WSW 17:59:18 59° S 18:00:41 37° ESE visible
26 Oct ? 19:35:15 10° W 19:36:02 15° W 19:36:02 15° W visible
27 Oct ? 17:45:07 10° WSW 17:49:09 62° S 17:51:00 30° ESE visible
27 Oct ? 19:25:08 10° W 19:26:21 19° W 19:26:21 19° W visible
28 Oct ? 17:34:58 10° WSW 17:39:01 65° S 17:41:18 24° E visible
28 Oct ? 19:15:01 10° W 19:16:40 22° W 19:16:40 22° W visible
29 Oct ? 17:24:48 10° W 17:28:52 67° S 17:31:38 20° E visible
29 Oct ? 19:04:54 10° W 19:06:59 27° WSW 19:06:59 27° WSW visible
30 Oct ? 17:14:40 10° W 17:18:43 67° S 17:21:59 15° E visible
30 Oct ? 18:54:48 10° W 18:57:20 31° WSW 18:57:20 31° WSW visible
31 Oct ? 17:04:32 10° W 17:08:35 65° S 17:12:22 12° ESE visible
31 Oct ? 18:44:42 10° W 18:47:44 33° SW 18:47:44 33° SW visible
